Location: Buckland
(65.9785°N, 161.1281°W)
Time: 23:36:24
(UTC+00:00)

Transit 4A - Pass Details

Date: 27 November 2020
Orbit: 864 x 980 km, 66.8° (Epoch: 20 January)

Event Time Altitude Azimuth Distance (km) Brightness Sun altitude
Rises 21:27:16 0° 238° (WSW) 3,668 11.2 1.8°
Reaches altitude 10° 21:29:49 10° 238° (WSW) 2,730 10.6 1.9°
Maximum altitude 21:36:13 78° 153° (SSE) 1,010 8.4 2.0°
Drops below altitude 10° 21:42:39 10° 69° (ENE) 2,736 10.3 2.2°
Sets 21:45:12 0° 68° (ENE) 3,677 10.9 2.2°
